DELTA 1 DEB, 10718

Orbit data source: Space-Track

DELTA 1 DEB, 10718 is space debris in SSO originally from a launch on Thu, 29 Jul 1976 UTC launched from the Air Force Western Test Range (AFWTR). Debris objects in space refer to the collection of defunct objects orbiting the Earth. Examples of debris include non-operational satellites, rocket bodies, and fragments generated from explosions, collisions, or faulty payload assembly.

Loading next visibility...
Identifier
10718, 1976-077AP
Orbit
SSO
Country
Flag of USUS
Related business
Manufacturer
Unknown
Mission
Spacecraft
Bus & Motor
Unknown
Mass
Unknown
Launch date (UTC)
1976-07-29 (50 years ago)
Launch vehicle
Unknown
Launch site
Air Force Western Test Range (AFWTR)
Object type
Payload
Rocket body
Debris
Shape & HBR
Unknown shape, 0.1 m
Radar Cross Section
Medium (>0.1 m² and <1 m²)

Expand to show TLE details & history
Last TLE update: 1 day ago

TLE from 1 day ago
0 DELTA 1 DEB
1 10718U 76077AP  26170.54343223  .00000005  00000-0  33940-3 0  9993
2 10718 101.6070 197.2374 0054398  70.6553  84.8630 12.42888387261067
Epoch: 2026-06-19T13:02Z
TLE epoch observation values (Epoch: 2026-06-19T13:02:32.544Z)
Latitude
23.36431°
Longitude
-81.10343°
Altitude
1,493.302 km
Speed
7.121 km/s
True Right ascension
01h 29m 12s
True Declination
23° 15' 04"
Sunlit
Object was in daylight at epoch
Visualization orbit readout
Latitude
Unknown
Longitude
Unknown
Altitude
Unknown
Speed
Unknown
Apparent Right ascension
Unknown
Apparent Declination
Unknown
Sunlit
N/A
Visualization observer readout
Local Sidereal Time
01:25:56
Azimuth
Unknown
Elevation
Unknown
Doppler factor
Unknown
Orbital elements
Apogee altitude
1,534.742 km
Perigee altitude
1,449.119 km
Semi-major axis
7,870.067 km
Eccentricity
0.00544
Inclination
101.607°
RAAN
197.2374°
Arg. of periapsis
70.6553°
True anomaly
85.48422°
Mean anomaly
84.863°
Eccentric anomaly
85.17357°
Mean motion
3.10868 °/min
Orbital period
115.8 mins
BSTAR
0.0003394
Loading maneuver chart data...
Computing Atmospheric mass density...
Loading historical data...
Loading historical data...
Loading historical data...
Loading historical data...
Loading historical data...
Loading historical data...
Loading historical data...

Documentation

Showing up to 5 results
|